This is the latest recevied weather packets stored in our database for station/object K4FDS. If no packets are shown the sender has not sent any weather packets the latest 10 day(s).
| Time | Temp. | Humidity | Pressure | Rain* | Wind** | Luminosity | Snow |
|---|---|---|---|---|---|---|---|
| 1777103353 | 12.22° C | 92% | 1005.3 hPa | 0 mm | 0 m/s | - | - |
| 1777101553 | 12.78° C | 92% | 1005.4 hPa | 0 mm | 0 m/s | - | - |
| 1777099753 | 13.33° C | 87% | 1005.8 hPa | 0 mm | 0 m/s | - | - |
| 1777097953 | 13.33° C | 87% | 1005.8 hPa | 0 mm | 0 m/s | - | - |
| 1777096153 | 13.33° C | 87% | 1005.8 hPa | 0 mm | 0 m/s | - | - |
| 1777094353 | 13.33° C | 87% | 1005.8 hPa | 0 mm | 0 m/s | - | - |
| 1777092553 | 13.89° C | 87% | 1005.8 hPa | 0 mm | 0 m/s | - | - |
| 1777090753 | 14.44° C | 86% | 1005.8 hPa | 0 mm | 0 m/s | - | - |
| 1777088953 | 15.56° C | 79% | 1005.9 hPa | 0 mm | 0 m/s | - | - |
| 1777087153 | 15.56° C | 79% | 1005.9 hPa | 0 mm | 0 m/s | - | - |
| 1777085353 | 15.56° C | 79% | 1005.9 hPa | 0 mm | 0 m/s | - | - |
| 1777083553 | 16.11° C | 79% | 1005.9 hPa | 0 mm | 0 m/s | - | - |
| 1777081753 | 16.67° C | 76% | 1005.6 hPa | 0 mm | 0 m/s | - | - |
| 1777079953 | 17.78° C | 73% | 1005.2 hPa | 0 mm | 0 m/s | - | - |
| 1777078153 | 22.78° C | 53% | 1003.6 hPa | 0 mm | 0 m/s | - | - |
| 1777076353 | 22.78° C | 53% | 1003.6 hPa | 0 mm | 0 m/s | - | - |
| 1777074553 | 22.78° C | 53% | 1003.6 hPa | 0 mm | 0 m/s | - | - |
| 1777072753 | 23.89° C | 49% | 1003.4 hPa | 0 mm | 0 m/s | - | - |
| 1777070953 | 23.89° C | 48% | 1003.3 hPa | 0 mm | 0 m/s | - | - |
| 1777069153 | 26.11° C | 39% | 1002.9 hPa | 0 mm | 0 m/s | - | - |
| 1777067353 | 26.11° C | 39% | 1002.9 hPa | 0 mm | 0 m/s | - | - |
| 1777065553 | 26.11° C | 36% | 1002.9 hPa | 0 mm | 0 m/s | - | - |
| 1777063753 | 23.33° C | 43% | 1003.6 hPa | 0 mm | 0.89 m/s, 6° | - | - |
| 1777061953 | 21.67° C | 50% | 1004.3 hPa | 1.02 mm | 0.89 m/s, 293° | - | - |
| 1777060152 | 21.11° C | 67% | 1004.5 hPa | 1.02 mm | 0 m/s | - | - |
* Rain latest hour (hover to see other rain measurements)
** Current wind speed in m/s (hover to see current wind gust speed)